Emporia, VA

10:13 AM EST on February 25, 2017 (GMT -0500)
Emporia-Greensville Regional

Weather History for KEMV - January, 2014

Change the Weather History Date:

Tuesday, January 21, 2014

  Actual Average Record
Temperature  
Mean Temperature 34 °F -  
Max Temperature 44 °F 47 °F 60 °F (1989)
Min Temperature 21 °F 23 °F -4 °F (1985)
Degree Days  
Heating Degree Days 32    
Moisture  
Dew Point 28 °F    
Average Humidity 80    
Maximum Humidity 93    
Minimum Humidity 61    
Precipitation  
Precipitation 0.00 in - - ()
Sea Level Pressure  
Sea Level Pressure 29.73 in    
Wind  
Wind Speed 7 mph (NNW)    
Max Wind Speed 21 mph    
Max Gust Speed 33 mph    
Visibility 8 miles    
Events Rain , Snow    
Averages and records for this station are not official NWS values.
T = Trace of Precipitation, MM = Missing Value Source: NWS Daily Summary

Daily Weather History Graph

Daily Weather History Graph

Search for Another Location

Airport or City:

Trip Planner

Search our weather history database for the weather conditions in past years. The results will help you decide how hot, cold, wet, or windy it might be!

Date:

Astronomy

Jan. 21, 2014 Rise Set
Actual Time 7:19 AM EST 5:23 PM EST
Civil Twilight 6:51 AM EST 5:51 PM EST
Nautical Twilight 6:19 AM EST 6:23 PM EST
Astronomical Twilight 5:48 AM EST 6:54 PM EST
Moon 10:44 PM EST (1/21) 9:56 AM EST (1/21)
Length of Visible Light 11h 00m
Length of Day
10h 04m
Waning Gibbous, 75% of the Moon is Illuminated
Jan 21
Waning Gibbous
Jan 24
Last Quarter
Jan 30
New
Feb 6
First Quarter
Feb 14
Full

Hourly Weather History & Observations

Time (EST) Temp. Windchill Dew Point Humidity Pressure Visibility Wind Dir Wind Speed Gust Speed Precip Events Conditions
12:15 AM 37.4 °F 32.1 °F 28.4 °F 70% 29.86 in 10.0 mi North 6.9 mph - N/A   Clear
12:35 AM 37.4 °F 33.8 °F 28.4 °F 70% 29.86 in 10.0 mi North 4.6 mph - N/A   Clear
12:55 AM 37.4 °F 32.1 °F 28.4 °F 70% 29.85 in 10.0 mi NNW 6.9 mph - N/A   Clear
1:15 AM 37.4 °F 32.8 °F 28.4 °F 70% 29.85 in 10.0 mi NNW 5.8 mph - N/A   Clear
1:35 AM 37.4 °F 32.1 °F 28.4 °F 70% 29.84 in 10.0 mi North 6.9 mph - N/A   Clear
1:55 AM 37.4 °F 33.8 °F 28.4 °F 70% 29.84 in 10.0 mi North 4.6 mph - N/A   Clear
2:15 AM 37.4 °F 34.9 °F 28.4 °F 70% 29.84 in 10.0 mi NNE 3.5 mph - N/A   Clear
2:55 AM 35.6 °F 32.8 °F 28.4 °F 75% 29.83 in 10.0 mi NNE 3.5 mph - N/A   Clear
3:15 AM 35.6 °F - 28.4 °F 75% 29.83 in 10.0 mi Calm Calm - N/A   Clear
3:35 AM 33.8 °F - 28.4 °F 81% 29.83 in 10.0 mi Calm Calm - N/A   Clear
3:55 AM 33.8 °F - 28.4 °F 81% 29.82 in 10.0 mi Calm Calm - N/A   Clear
4:15 AM 33.8 °F - 28.4 °F 81% 29.82 in 10.0 mi Calm Calm - N/A   Clear
4:35 AM 32.0 °F 27.5 °F 28.4 °F 87% 29.82 in 10.0 mi NNW 4.6 mph - N/A   Clear
4:55 AM 32.0 °F 28.7 °F 28.4 °F 87% 29.81 in 10.0 mi NW 3.5 mph - N/A   Clear
5:15 AM 30.2 °F 26.7 °F 28.4 °F 93% 29.80 in 10.0 mi NNW 3.5 mph - N/A   Clear
5:35 AM 32.0 °F 28.7 °F 28.4 °F 87% 29.80 in 10.0 mi NNW 3.5 mph - N/A   Clear
5:55 AM 32.0 °F - 28.4 °F 87% 29.79 in 10.0 mi Calm Calm - N/A   Clear
6:15 AM 28.4 °F - 26.6 °F 93% 29.79 in 10.0 mi Calm Calm - N/A   Clear
6:35 AM 28.4 °F - 26.6 °F 93% 29.77 in 10.0 mi Calm Calm - N/A   Clear
6:55 AM 28.4 °F - 26.6 °F 93% 29.75 in 10.0 mi Calm Calm - N/A   Clear
7:15 AM 30.2 °F - 28.4 °F 93% 29.75 in 10.0 mi Calm Calm - N/A   Clear
7:35 AM 30.2 °F 26.7 °F 28.4 °F 93% 29.74 in 10.0 mi NW 3.5 mph - N/A   Clear
7:55 AM 32.0 °F 26.4 °F 28.4 °F 87% 29.74 in 10.0 mi NW 5.8 mph - N/A   Clear
8:15 AM 32.0 °F 26.4 °F 28.4 °F 87% 29.74 in 10.0 mi NW 5.8 mph - N/A   Clear
8:35 AM 32.0 °F 24.8 °F 30.2 °F 93% 29.73 in 10.0 mi NW 8.1 mph - N/A   Clear
8:55 AM 33.8 °F 28.6 °F 30.2 °F 87% 29.73 in 10.0 mi NNW 5.8 mph - N/A   Mostly Cloudy
9:15 AM 35.6 °F 30.7 °F 32.0 °F 87% 29.71 in 10.0 mi NW 5.8 mph - N/A   Overcast
9:35 AM 35.6 °F 32.8 °F 32.0 °F 87% 29.71 in 10.0 mi North 3.5 mph - N/A   Overcast
9:55 AM 37.4 °F 32.1 °F 32.0 °F 81% 29.70 in 10.0 mi NNW 6.9 mph - N/A   Overcast
10:15 AM 39.2 °F 35.9 °F 32.0 °F 75% 29.68 in 10.0 mi North 4.6 mph - N/A   Overcast
10:35 AM 39.2 °F 34.2 °F 32.0 °F 75% 29.66 in 10.0 mi NNE 6.9 mph - N/A   Mostly Cloudy
10:55 AM 41.0 °F 36.4 °F 32.0 °F 70% 29.68 in 10.0 mi NW 6.9 mph - N/A   Mostly Cloudy
11:15 AM 42.8 °F 37.0 °F 33.8 °F 70% 29.68 in 10.0 mi NW 10.4 mph - N/A   Overcast
11:35 AM 42.8 °F 37.5 °F 33.8 °F 70% 29.66 in 10.0 mi NNW 9.2 mph - N/A   Overcast
11:55 AM 44.6 °F 39.2 °F 33.8 °F 66% 29.64 in 10.0 mi NNW 10.4 mph - N/A   Mostly Cloudy
12:15 PM 44.6 °F 39.7 °F 33.8 °F 66% 29.61 in 10.0 mi NNW 9.2 mph - N/A   Mostly Cloudy
12:35 PM 44.6 °F 41.4 °F 33.8 °F 66% 29.59 in 10.0 mi North 5.8 mph - N/A   Mostly Cloudy
12:55 PM 44.6 °F 39.7 °F 33.8 °F 66% 29.59 in 10.0 mi NNW 9.2 mph - N/A   Overcast
1:15 PM 44.6 °F 38.8 °F 33.8 °F 66% 29.59 in 10.0 mi NW 11.5 mph - N/A   Overcast
1:35 PM 44.6 °F 39.2 °F 32.0 °F 61% 29.59 in 10.0 mi NNW 10.4 mph - N/A   Overcast
1:55 PM 44.6 °F 38.1 °F 32.0 °F 61% 29.59 in 10.0 mi NW 13.8 mph 17.3 mph N/A   Overcast
2:15 PM 44.6 °F 38.4 °F 32.0 °F 61% 29.58 in 10.0 mi NW 12.7 mph 18.4 mph N/A   Overcast
2:35 PM 42.8 °F 37.5 °F 32.0 °F 66% 29.59 in 10.0 mi North 9.2 mph 16.1 mph N/A   Overcast
2:55 PM 42.8 °F 38.0 °F 32.0 °F 66% 29.58 in 10.0 mi North 8.1 mph - N/A   Overcast
3:15 PM 41.0 °F 34.3 °F 32.0 °F 70% 29.59 in 10.0 mi North 11.5 mph - N/A   Overcast
3:35 PM 41.0 °F 36.4 °F 32.0 °F 70% 29.60 in 10.0 mi NNW 6.9 mph - N/A   Overcast
3:55 PM 41.0 °F 35.2 °F 32.0 °F 70% 29.63 in 10.0 mi NNW 9.2 mph - N/A   Overcast
4:15 PM 39.2 °F 33.0 °F 32.0 °F 75% 29.62 in 10.0 mi NNW 9.2 mph - N/A   Overcast
4:35 PM 37.4 °F 28.2 °F 32.0 °F 81% 29.62 in 10.0 mi NNW 16.1 mph 24.2 mph N/A   Overcast
4:55 PM 35.6 °F 26.2 °F 32.0 °F 87% 29.65 in 10.0 mi NNW 15.0 mph 20.7 mph N/A   Overcast
5:15 PM 33.8 °F 23.5 °F 30.2 °F 87% 29.67 in 10.0 mi NNW 16.1 mph 23.0 mph N/A   Overcast
5:35 PM 32.0 °F 22.5 °F 28.4 °F 87% 29.69 in 10.0 mi NNW 12.7 mph 26.5 mph N/A   Overcast
5:55 PM 32.0 °F 21.2 °F 26.6 °F 80% 29.70 in 10.0 mi NW 16.1 mph 19.6 mph N/A   Overcast
6:15 PM 30.2 °F 19.8 °F 26.6 °F 86% 29.71 in 10.0 mi NNW 13.8 mph 23.0 mph N/A Snow Light Snow
6:35 PM 30.2 °F 20.2 °F 26.6 °F 86% 29.68 in 7.0 mi NNW 12.7 mph 23.0 mph N/A Snow Light Snow
6:55 PM 30.2 °F 18.9 °F 26.6 °F 86% 29.70 in 5.0 mi NNW 16.1 mph 25.3 mph N/A Snow Light Snow
7:15 PM 28.4 °F 17.5 °F 23.0 °F 80% 29.69 in 10.0 mi NNW 13.8 mph 27.6 mph N/A Rain Light Freezing Rain
7:35 PM 28.4 °F 16.2 °F 21.2 °F 74% 29.69 in 10.0 mi NNW 17.3 mph 29.9 mph N/A   Overcast
7:55 PM 28.4 °F 16.2 °F 23.0 °F 80% 29.71 in 7.0 mi NNW 17.3 mph 24.2 mph N/A Snow Light Snow
8:15 PM 28.4 °F 16.2 °F 21.2 °F 74% 29.73 in 5.0 mi NNW 17.3 mph 32.2 mph N/A Snow Light Snow
8:35 PM 26.6 °F 16.8 °F 23.0 °F 86% 29.75 in 1.2 mi NW 10.4 mph 18.4 mph N/A Snow Snow
8:55 PM 26.6 °F 14.7 °F 23.0 °F 86% 29.76 in 0.8 mi NW 15.0 mph - N/A Snow Snow
9:15 PM 24.8 °F 10.7 °F 23.0 °F 93% 29.77 in 1.0 mi NW 19.6 mph 26.5 mph N/A Snow Snow
9:35 PM 24.8 °F 11.9 °F 23.0 °F 93% 29.77 in 0.8 mi NNW 16.1 mph 21.9 mph N/A Snow Snow
9:55 PM 24.8 °F 11.9 °F 21.2 °F 86% 29.77 in 0.8 mi NW 16.1 mph - N/A Snow Heavy Snow
10:15 PM 23.0 °F 9.2 °F 21.2 °F 93% 29.77 in 0.8 mi NNW 17.3 mph 24.2 mph N/A Snow Snow
10:35 PM 23.0 °F 11.1 °F 21.2 °F 93% 29.78 in 1.0 mi NNW 12.7 mph 18.4 mph N/A Snow Snow
10:55 PM 23.0 °F 11.7 °F 21.2 °F 93% 29.79 in 1.8 mi NW 11.5 mph - N/A Snow Light Snow
11:15 PM 23.0 °F 10.1 °F 21.2 °F 93% 29.80 in 1.8 mi NW 15.0 mph 23.0 mph N/A Snow Light Snow
11:35 PM 23.0 °F 9.2 °F 19.4 °F 86% 29.81 in 1.5 mi NW 17.3 mph 28.8 mph N/A Snow Light Snow
11:55 PM 21.2 °F 5.6 °F 17.6 °F 86% 29.82 in 1.8 mi NW 20.7 mph 33.4 mph N/A Snow Light Snow